sat.trackr.live / text

‹ back to catalog

STARLINK-34039

NORAD 63946 · 2025-098W

PAYLOAD ACTIVE UNKNOWN

§ Identity

Operator
Country
US
Launch date
2025-05-13
Launch site
AFWTR
Launch vehicle
Mass (kg)
RCS (m²)

Purposes: comms

External: N2YO · Heavens-Above · Gunter

§ Orbital elements

Epoch: 2026-09-20T22:26:43.622304Z

Period
94.14 min
Inclination
69.9979°
Eccentricity
0.0003268
Mean motion
15.29612299 rev/d
Perigee alt
474.7 km
Apogee alt
479.2 km
Semi-major
6,855.1 km
B*
4.7565e-4
RAAN
139.5728°
Arg perigee
266.3550°
Mean anomaly
93.7252°
Rev number
7,586

§ Raw data

STARLINK-340391 63946U 25098W   26263.93522711  .00013584  00000+0  47565-3 0  99912 63946  69.9979 139.5728 0003268 266.3550  93.7252 15.29612299 75860

JSON: /api/v1/satellites/63946 · /tle

For live sub-satellite position, see the globe view (requires WebGL).

§ Visibility from observer

Set your observer location to see the next 7 days of passes ≥ 10°. The values pass through the URL so the page stays shareable.

No JS? Fill the form by hand. The geolocation button needs JavaScript.